GFSNW_prec_precacc_159.txt.gz
Total_Precipitation_Accumulation
0.85 0.79 0.82 0.88 1.41 2.00 2.11 1.74 1.70 1.84 1.27 1.58 1.23 0.76 0.46 0.16 0.04 0.01 0.00 0.00 0.01 0.01 0.02 0.01 0.01 0.01 0.02 0.02 0.01 0.01 0.00 0.13 0.16 0.09 0.01 0.02 0.06 0.02 0.06 0.22 0.07 0.12 0.13 0.25
0.65 0.66 0.64 0.71 0.95 1.34 1.98 1.53 1.84 1.97 0.94 0.76 0.57 0.30 0.08 0.09 0.06 0.03 0.00 0.00 0.00 0.01 0.01 0.01 0.01 0.00 0.00 0.00 0.00 0.01 0.01 0.15 0.21 0.22 0.19 0.11 0.17 0.05 0.09 0.18 0.37 0.26 0.14 0.05
0.71 0.60 0.50 0.59 0.89 1.10 1.47 1.25 1.75 2.30 1.30 0.36 0.09 0.14 0.12 0.06 0.03 0.01 0.01 0.02 0.02 0.01 0.01 0.00 0.00 0.00 0.00 0.00 0.00 0.02 0.11 0.17 0.12 0.13 0.31 0.41 0.32 0.07 0.09 0.38 0.60 0.11 0.05 0.02
0.86 0.72 0.56 0.54 0.85 1.19 1.06 0.74 0.47 0.57 0.70 0.23 0.03 0.04 0.07 0.04 0.01 0.01 0.03 0.04 0.04 0.02 0.02 0.01 0.00 0.00 0.00 0.00 0.02 0.13 0.33 0.25 0.11 0.12 0.22 0.58 0.38 0.14 0.10 0.39 0.19 0.26 0.09 0.04
1.19 1.01 0.61 0.50 0.84 0.90 0.92 0.81 0.29 0.09 0.03 0.02 0.01 0.01 0.04 0.04 0.02 0.03 0.04 0.01 0.01 0.03 0.03 0.01 0.00 0.00 0.00 0.01 0.03 0.13 0.31 0.38 0.33 0.34 0.25 0.35 0.27 0.07 0.11 0.12 0.04 0.05 0.02 0.04
1.05 0.89 0.66 0.49 0.67 0.93 0.91 0.86 0.29 0.04 0.02 0.01 0.00 0.00 0.02 0.02 0.02 0.03 0.00 0.01 0.02 0.03 0.01 0.01 0.01 0.01 0.01 0.01 0.07 0.26 0.41 0.47 0.64 0.48 0.18 0.19 0.26 0.08 0.06 0.09 0.07 0.03 0.04 0.05
0.91 0.82 0.73 0.60 0.69 0.81 0.78 0.77 0.50 0.14 0.05 0.01 0.00 0.00 0.00 0.01 0.02 0.00 0.00 0.00 0.03 0.02 0.01 0.01 0.01 0.00 0.01 0.01 0.01 0.05 0.19 0.42 0.73 0.83 0.44 0.44 0.25 0.10 0.14 0.15 0.12 0.06 0.05 0.07
0.74 0.59 0.51 0.63 0.79 0.45 0.49 0.55 0.53 0.19 0.06 0.01 0.00 0.01 0.01 0.02 0.03 0.01 0.00 0.01 0.00 0.02 0.03 0.05 0.06 0.02 0.01 0.00 0.00 0.01 0.02 0.17 0.40 0.42 0.30 0.15 0.04 0.07 0.11 0.09 0.09 0.03 0.03 0.02
1.13 0.82 0.48 0.47 0.47 0.22 0.27 0.43 0.57 0.28 0.08 0.02 0.00 0.02 0.01 0.04 0.06 0.02 0.01 0.00 0.01 0.05 0.11 0.19 0.13 0.03 0.02 0.01 0.01 0.00 0.01 0.03 0.19 0.15 0.21 0.08 0.02 0.01 0.02 0.02 0.02 0.00 0.00 0.01
1.33 0.97 0.57 0.37 0.35 0.23 0.17 0.44 0.50 0.38 0.10 0.02 0.00 0.02 0.01 0.01 0.01 0.02 0.00 0.02 0.05 0.09 0.16 0.25 0.08 0.02 0.00 0.00 0.01 0.02 0.06 0.12 0.16 0.14 0.17 0.01 0.00 0.00 0.00 0.03 0.02 0.00 0.00 0.00
1.02 0.80 0.60 0.35 0.29 0.20 0.19 0.29 0.37 0.42 0.13 0.02 0.00 0.00 0.01 0.00 0.00 0.02 0.02 0.09 0.13 0.20 0.26 0.24 0.10 0.03 0.01 0.00 0.00 0.00 0.02 0.04 0.06 0.06 0.10 0.01 0.00 0.00 0.00 0.00 0.00 0.00 0.01 0.01
0.67 0.61 0.43 0.24 0.22 0.21 0.25 0.26 0.29 0.25 0.15 0.01 0.00 0.00 0.00 0.00 0.00 0.02 0.01 0.08 0.12 0.22 0.24 0.19 0.09 0.04 0.01 0.00 0.01 0.00 0.00 0.00 0.00 0.00 0.00 0.00 0.00 0.00 0.00 0.00 0.00 0.00 0.00 0.00
0.65 0.47 0.27 0.16 0.17 0.17 0.30 0.30 0.23 0.24 0.25 0.05 0.03 0.02 0.00 0.00 0.00 0.00 0.04 0.07 0.15 0.23 0.21 0.32 0.15 0.06 0.04 0.02 0.01 0.00 0.00 0.00 0.00 0.00 0.00 0.00 0.00 0.00 0.00 0.00 0.00 0.00 0.01 0.01
0.72 0.48 0.26 0.14 0.12 0.16 0.23 0.11 0.10 0.22 0.26 0.19 0.05 0.01 0.02 0.01 0.02 0.02 0.02 0.09 0.17 0.29 0.48 0.33 0.19 0.08 0.03 0.02 0.01 0.00 0.01 0.00 0.00 0.00 0.00 0.00 0.00 0.00 0.00 0.00 0.00 0.00 0.00 0.00
0.70 0.59 0.27 0.19 0.20 0.18 0.09 0.02 0.07 0.16 0.32 0.34 0.18 0.16 0.01 0.01 0.05 0.04 0.06 0.11 0.30 0.34 0.59 0.57 0.22 0.09 0.06 0.02 0.01 0.00 0.00 0.00 0.00 0.00 0.00 0.00 0.00 0.00 0.00 0.00 0.00 0.00 0.00 0.00
0.75 0.51 0.40 0.35 0.22 0.18 0.15 0.20 0.36 0.28 0.32 0.60 0.43 0.34 0.16 0.06 0.09 0.09 0.15 0.22 0.43 0.67 0.50 0.53 0.33 0.13 0.20 0.17 0.05 0.00 0.00 0.00 0.00 0.00 0.00 0.00 0.00 0.00 0.00 0.00 0.00 0.00 0.00 0.00
0.62 0.55 0.47 0.38 0.33 0.19 0.15 0.27 0.62 0.58 0.57 0.69 0.78 0.66 0.48 0.14 0.23 0.27 0.30 0.31 0.55 0.89 0.66 0.41 0.33 0.29 0.53 0.34 0.05 0.00 0.01 0.01 0.01 0.01 0.00 0.00 0.00 0.00 0.00 0.00 0.00 0.00 0.00 0.00
0.67 0.69 0.74 0.77 0.89 0.59 0.28 0.11 0.24 0.52 0.89 0.92 1.06 0.98 0.96 0.32 0.53 0.46 0.40 0.39 0.48 1.03 0.74 0.34 0.24 0.35 0.35 0.21 0.02 0.05 0.04 0.04 0.02 0.01 0.02 0.01 0.01 0.00 0.00 0.00 0.00 0.00 0.00 0.00
1.04 1.32 1.51 1.80 1.49 0.73 0.40 0.39 0.52 0.67 1.03 0.85 0.81 0.90 0.80 0.64 0.64 0.48 0.56 0.47 0.57 0.73 0.57 0.24 0.27 0.29 0.29 0.06 0.08 0.11 0.14 0.15 0.17 0.13 0.06 0.06 0.05 0.02 0.03 0.02 0.03 0.04 0.04 0.04
1.80 1.99 2.02 1.54 0.75 0.62 0.91 1.75 2.03 1.67 1.04 0.70 0.71 0.54 0.45 0.89 0.67 0.60 0.65 0.35 0.56 0.67 0.33 0.27 0.40 0.21 0.03 0.05 0.12 0.09 0.15 0.30 0.34 0.42 0.30 0.17 0.23 0.14 0.10 0.15 0.11 0.12 0.14 0.14
1.70 1.57 1.44 1.09 0.69 1.02 2.09 2.79 2.06 1.02 0.65 0.53 0.44 0.41 0.37 0.48 0.56 0.39 0.45 0.54 0.48 0.75 0.48 0.36 0.34 0.30 0.12 0.07 0.05 0.04 0.08 0.18 0.14 0.31 0.32 0.20 0.30 0.35 0.25 0.29 0.33 0.34 0.35 0.34
0.97 0.89 0.97 1.15 1.65 2.36 2.27 2.00 0.96 0.35 0.23 0.22 0.29 0.28 0.33 0.44 0.31 0.53 0.49 0.42 0.42 0.40 0.36 0.52 0.43 0.27 0.18 0.20 0.09 0.06 0.04 0.06 0.07 0.10 0.22 0.18 0.11 0.16 0.19 0.27 0.30 0.29 0.34 0.36
0.90 1.32 1.85 1.84 2.14 2.20 1.48 0.75 0.32 0.11 0.10 0.09 0.12 0.27 0.23 0.40 0.39 0.49 0.59 0.41 0.23 0.38 0.52 0.44 0.18 0.06 0.03 0.10 0.19 0.20 0.16 0.10 0.25 0.27 0.18 0.11 0.09 0.11 0.14 0.15 0.11 0.10 0.11 0.10
1.87 2.01 1.93 1.36 1.14 0.62 0.33 0.17 0.15 0.05 0.04 0.03 0.06 0.15 0.22 0.29 0.29 0.37 0.42 0.29 0.38 0.61 0.39 0.23 0.07 0.06 0.04 0.02 0.05 0.10 0.14 0.13 0.24 0.56 0.60 0.44 0.44 0.40 0.30 0.21 0.15 0.12 0.11 0.07
2.45 1.95 1.21 0.66 0.31 0.10 0.05 0.04 0.06 0.02 0.02 0.04 0.06 0.18 0.24 0.33 0.51 0.46 0.40 0.53 0.57 0.34 0.26 0.17 0.10 0.09 0.08 0.06 0.03 0.03 0.07 0.13 0.16 0.25 0.33 0.40 0.29 0.16 0.20 0.27 0.25 0.17 0.13 0.10
2.39 1.82 0.76 0.20 0.07 0.05 0.02 0.01 0.03 0.02 0.02 0.07 0.13 0.26 0.33 0.34 0.41 0.45 0.36 0.53 0.42 0.24 0.16 0.10 0.05 0.09 0.07 0.05 0.04 0.01 0.00 0.01 0.06 0.14 0.19 0.24 0.22 0.16 0.13 0.17 0.27 0.23 0.20 0.22
2.52 0.94 0.24 0.11 0.06 0.06 0.05 0.02 0.01 0.02 0.11 0.28 0.49 0.63 0.29 0.28 0.38 0.25 0.23 0.35 0.20 0.10 0.06 0.02 0.01 0.01 0.01 0.01 0.00 0.00 0.00 0.01 0.03 0.09 0.13 0.20 0.25 0.24 0.18 0.16 0.16 0.16 0.22 0.28

GFSNW_prec_precacc_162.txt.gz
Total_Precipitation_Accumulation
0.85 0.79 0.82 0.88 1.41 2.00 2.11 1.74 1.70 1.84 1.27 1.58 1.23 0.76 0.46 0.16 0.04 0.01 0.00 0.00 0.01 0.01 0.02 0.01 0.01 0.01 0.02 0.02 0.01 0.01 0.00 0.13 0.16 0.09 0.01 0.02 0.06 0.02 0.06 0.22 0.07 0.12 0.13 0.25
0.65 0.66 0.64 0.71 0.95 1.34 1.98 1.53 1.84 1.97 0.94 0.76 0.57 0.30 0.08 0.09 0.06 0.03 0.00 0.00 0.00 0.01 0.01 0.01 0.01 0.00 0.00 0.00 0.00 0.01 0.01 0.15 0.21 0.22 0.19 0.11 0.17 0.05 0.09 0.18 0.37 0.26 0.14 0.05
0.71 0.60 0.50 0.59 0.89 1.10 1.47 1.25 1.75 2.30 1.30 0.36 0.09 0.14 0.12 0.06 0.03 0.01 0.01 0.02 0.02 0.01 0.01 0.00 0.00 0.00 0.00 0.00 0.00 0.02 0.11 0.17 0.12 0.13 0.31 0.41 0.32 0.07 0.09 0.38 0.60 0.11 0.05 0.02
0.86 0.72 0.56 0.54 0.85 1.19 1.06 0.74 0.47 0.57 0.70 0.23 0.03 0.04 0.07 0.04 0.01 0.01 0.03 0.04 0.04 0.02 0.02 0.01 0.00 0.00 0.00 0.00 0.02 0.13 0.33 0.25 0.11 0.12 0.22 0.58 0.38 0.14 0.10 0.39 0.19 0.26 0.09 0.04
1.19 1.01 0.61 0.50 0.84 0.90 0.92 0.81 0.29 0.09 0.03 0.02 0.01 0.01 0.04 0.04 0.02 0.03 0.04 0.01 0.01 0.03 0.03 0.01 0.00 0.00 0.00 0.01 0.03 0.13 0.31 0.38 0.33 0.34 0.25 0.35 0.27 0.07 0.11 0.12 0.04 0.05 0.02 0.04
1.05 0.89 0.66 0.49 0.67 0.93 0.91 0.86 0.29 0.04 0.02 0.01 0.00 0.00 0.02 0.02 0.02 0.03 0.00 0.01 0.02 0.03 0.01 0.01 0.01 0.01 0.01 0.01 0.07 0.26 0.41 0.47 0.64 0.48 0.18 0.19 0.26 0.08 0.06 0.09 0.07 0.03 0.04 0.05
0.91 0.82 0.73 0.60 0.69 0.81 0.78 0.77 0.50 0.14 0.05 0.01 0.00 0.00 0.00 0.01 0.02 0.00 0.00 0.00 0.03 0.02 0.01 0.01 0.01 0.00 0.01 0.01 0.01 0.05 0.19 0.42 0.73 0.83 0.44 0.44 0.25 0.10 0.14 0.15 0.12 0.06 0.05 0.07
0.74 0.59 0.51 0.63 0.79 0.45 0.49 0.55 0.53 0.19 0.06 0.01 0.00 0.01 0.01 0.02 0.03 0.01 0.00 0.01 0.00 0.02 0.03 0.05 0.06 0.02 0.01 0.00 0.00 0.01 0.02 0.17 0.40 0.42 0.30 0.15 0.04 0.07 0.11 0.09 0.09 0.03 0.03 0.02
1.13 0.82 0.48 0.47 0.47 0.22 0.27 0.43 0.57 0.28 0.08 0.02 0.00 0.02 0.01 0.04 0.06 0.02 0.01 0.00 0.01 0.05 0.11 0.19 0.13 0.03 0.02 0.01 0.01 0.00 0.01 0.03 0.19 0.15 0.21 0.08 0.02 0.01 0.02 0.02 0.02 0.00 0.00 0.01
1.33 0.97 0.57 0.37 0.35 0.23 0.17 0.44 0.50 0.38 0.10 0.02 0.00 0.02 0.01 0.01 0.01 0.02 0.00 0.02 0.05 0.09 0.16 0.25 0.08 0.02 0.00 0.00 0.01 0.02 0.06 0.12 0.16 0.14 0.17 0.01 0.00 0.00 0.00 0.03 0.02 0.00 0.00 0.00
1.03 0.80 0.60 0.35 0.29 0.20 0.19 0.29 0.37 0.42 0.13 0.02 0.00 0.00 0.01 0.00 0.00 0.02 0.02 0.09 0.13 0.20 0.26 0.24 0.10 0.03 0.01 0.00 0.00 0.00 0.02 0.04 0.06 0.06 0.10 0.01 0.00 0.00 0.00 0.00 0.00 0.00 0.01 0.01
0.69 0.62 0.43 0.24 0.22 0.21 0.25 0.26 0.29 0.25 0.15 0.01 0.00 0.00 0.00 0.00 0.00 0.02 0.01 0.08 0.12 0.22 0.24 0.19 0.09 0.04 0.01 0.00 0.01 0.00 0.00 0.00 0.00 0.00 0.00 0.00 0.00 0.00 0.00 0.00 0.00 0.00 0.00 0.00
0.69 0.50 0.27 0.16 0.17 0.17 0.30 0.30 0.23 0.24 0.25 0.05 0.03 0.02 0.00 0.00 0.00 0.00 0.04 0.07 0.15 0.23 0.21 0.32 0.15 0.06 0.04 0.02 0.01 0.00 0.00 0.00 0.00 0.00 0.00 0.00 0.00 0.00 0.00 0.00 0.00 0.00 0.01 0.01
0.74 0.55 0.29 0.14 0.12 0.16 0.23 0.11 0.10 0.22 0.26 0.19 0.05 0.01 0.02 0.01 0.02 0.02 0.02 0.09 0.17 0.29 0.48 0.33 0.19 0.08 0.03 0.02 0.01 0.00 0.01 0.00 0.00 0.00 0.00 0.00 0.00 0.00 0.00 0.00 0.00 0.00 0.00 0.00
0.70 0.60 0.30 0.22 0.21 0.18 0.09 0.02 0.07 0.16 0.32 0.34 0.18 0.16 0.01 0.01 0.05 0.04 0.06 0.11 0.30 0.34 0.59 0.57 0.22 0.09 0.06 0.02 0.01 0.00 0.00 0.00 0.00 0.00 0.00 0.00 0.00 0.00 0.00 0.00 0.00 0.00 0.00 0.00
0.75 0.51 0.40 0.37 0.30 0.23 0.16 0.21 0.36 0.28 0.32 0.60 0.43 0.34 0.16 0.06 0.09 0.09 0.15 0.22 0.43 0.67 0.50 0.53 0.33 0.13 0.20 0.17 0.05 0.00 0.00 0.00 0.00 0.00 0.00 0.00 0.00 0.00 0.00 0.00 0.00 0.00 0.00 0.00
0.62 0.55 0.47 0.40 0.45 0.31 0.19 0.29 0.62 0.58 0.57 0.69 0.78 0.66 0.48 0.14 0.23 0.27 0.30 0.31 0.55 0.89 0.66 0.41 0.33 0.29 0.53 0.34 0.05 0.00 0.01 0.01 0.01 0.01 0.00 0.00 0.00 0.00 0.00 0.00 0.00 0.00 0.00 0.00
0.67 0.69 0.74 0.77 0.93 0.73 0.36 0.12 0.26 0.53 0.89 0.92 1.06 0.98 0.96 0.32 0.53 0.46 0.40 0.39 0.48 1.03 0.74 0.34 0.24 0.35 0.35 0.21 0.02 0.05 0.04 0.04 0.02 0.01 0.02 0.01 0.01 0.00 0.00 0.00 0.00 0.00 0.00 0.00
1.04 1.32 1.51 1.80 1.50 0.76 0.45 0.41 0.53 0.68 1.06 0.89 0.82 0.90 0.80 0.64 0.64 0.48 0.56 0.47 0.57 0.73 0.57 0.24 0.27 0.29 0.29 0.06 0.08 0.11 0.14 0.15 0.17 0.13 0.06 0.06 0.05 0.02 0.03 0.02 0.03 0.04 0.04 0.04
1.80 1.99 2.02 1.54 0.76 0.62 0.93 1.82 2.12 1.74 1.09 0.76 0.74 0.54 0.45 0.89 0.67 0.60 0.65 0.35 0.56 0.67 0.33 0.27 0.40 0.21 0.03 0.05 0.12 0.09 0.15 0.30 0.34 0.42 0.30 0.17 0.23 0.14 0.10 0.15 0.11 0.12 0.14 0.14
1.70 1.58 1.44 1.09 0.71 1.03 2.10 2.83 2.14 1.06 0.68 0.55 0.45 0.41 0.37 0.48 0.56 0.39 0.45 0.54 0.48 0.75 0.48 0.36 0.34 0.30 0.12 0.07 0.05 0.04 0.08 0.18 0.14 0.31 0.32 0.20 0.30 0.35 0.25 0.29 0.33 0.34 0.35 0.34
0.98 0.89 0.97 1.16 1.69 2.37 2.28 2.00 0.97 0.35 0.23 0.23 0.29 0.28 0.33 0.44 0.31 0.53 0.49 0.42 0.42 0.40 0.36 0.52 0.43 0.27 0.18 0.20 0.09 0.06 0.04 0.06 0.07 0.10 0.22 0.18 0.11 0.16 0.19 0.27 0.30 0.29 0.34 0.36
0.91 1.32 1.86 1.84 2.14 2.24 1.50 0.76 0.32 0.11 0.10 0.10 0.12 0.27 0.23 0.40 0.39 0.49 0.59 0.41 0.23 0.38 0.52 0.44 0.18 0.06 0.03 0.10 0.19 0.20 0.16 0.10 0.25 0.27 0.18 0.11 0.09 0.11 0.14 0.15 0.11 0.10 0.11 0.10
1.89 2.02 1.95 1.37 1.14 0.62 0.33 0.18 0.16 0.05 0.04 0.03 0.06 0.15 0.22 0.29 0.29 0.37 0.43 0.30 0.38 0.61 0.39 0.23 0.07 0.06 0.04 0.02 0.05 0.10 0.14 0.13 0.24 0.56 0.60 0.44 0.44 0.40 0.30 0.21 0.15 0.12 0.11 0.07
2.52 2.01 1.22 0.66 0.31 0.10 0.05 0.04 0.06 0.02 0.02 0.04 0.06 0.18 0.25 0.34 0.54 0.48 0.42 0.54 0.57 0.34 0.26 0.17 0.10 0.09 0.08 0.06 0.03 0.03 0.07 0.13 0.16 0.25 0.33 0.40 0.29 0.16 0.20 0.27 0.25 0.17 0.13 0.10
2.42 1.88 0.76 0.20 0.07 0.05 0.02 0.01 0.03 0.02 0.02 0.12 0.22 0.35 0.42 0.41 0.45 0.48 0.36 0.53 0.42 0.24 0.16 0.10 0.05 0.09 0.07 0.05 0.04 0.01 0.00 0.01 0.06 0.14 0.19 0.24 0.22 0.16 0.13 0.17 0.27 0.23 0.20 0.22
2.53 0.94 0.24 0.11 0.06 0.07 0.05 0.02 0.01 0.02 0.12 0.31 0.56 0.72 0.35 0.34 0.43 0.26 0.23 0.35 0.20 0.10 0.06 0.02 0.01 0.01 0.01 0.01 0.00 0.00 0.00 0.01 0.03 0.09 0.13 0.20 0.25 0.24 0.18 0.16 0.16 0.16 0.22 0.28

GFSNW_prec_precacc_165.txt.gz
Total_Precipitation_Accumulation
0.85 0.79 0.82 0.88 1.41 2.00 2.11 1.74 1.70 1.84 1.27 1.58 1.23 0.76 0.46 0.16 0.04 0.01 0.00 0.00 0.01 0.01 0.02 0.01 0.01 0.01 0.02 0.02 0.01 0.01 0.00 0.13 0.16 0.09 0.01 0.02 0.06 0.02 0.06 0.22 0.07 0.12 0.13 0.25
0.65 0.66 0.64 0.71 0.95 1.34 1.98 1.53 1.84 1.97 0.94 0.76 0.57 0.30 0.08 0.09 0.06 0.03 0.00 0.00 0.00 0.01 0.01 0.01 0.01 0.00 0.00 0.00 0.00 0.01 0.01 0.15 0.21 0.22 0.19 0.11 0.17 0.05 0.09 0.18 0.37 0.26 0.14 0.05
0.71 0.60 0.50 0.59 0.89 1.10 1.47 1.25 1.75 2.30 1.30 0.36 0.09 0.14 0.12 0.06 0.03 0.01 0.01 0.02 0.02 0.01 0.01 0.00 0.00 0.00 0.00 0.00 0.00 0.02 0.11 0.17 0.12 0.13 0.31 0.41 0.32 0.07 0.09 0.38 0.60 0.11 0.05 0.02
0.86 0.72 0.56 0.54 0.85 1.19 1.06 0.74 0.47 0.57 0.70 0.23 0.03 0.04 0.07 0.04 0.01 0.01 0.03 0.04 0.04 0.02 0.02 0.01 0.00 0.00 0.00 0.00 0.02 0.13 0.33 0.25 0.11 0.12 0.22 0.58 0.38 0.14 0.10 0.39 0.19 0.26 0.09 0.04
1.19 1.01 0.61 0.50 0.84 0.90 0.92 0.81 0.29 0.09 0.03 0.02 0.01 0.01 0.04 0.04 0.02 0.03 0.04 0.01 0.01 0.03 0.03 0.01 0.00 0.00 0.00 0.01 0.03 0.13 0.31 0.38 0.33 0.34 0.25 0.35 0.27 0.07 0.11 0.12 0.04 0.05 0.02 0.04
1.05 0.89 0.66 0.49 0.67 0.93 0.91 0.86 0.29 0.04 0.02 0.01 0.00 0.00 0.02 0.02 0.02 0.03 0.00 0.01 0.02 0.03 0.01 0.01 0.01 0.01 0.01 0.01 0.07 0.26 0.41 0.47 0.64 0.48 0.18 0.19 0.26 0.08 0.06 0.09 0.07 0.03 0.04 0.05
0.91 0.82 0.73 0.60 0.69 0.81 0.78 0.77 0.50 0.14 0.05 0.01 0.00 0.00 0.00 0.01 0.02 0.00 0.00 0.00 0.03 0.02 0.01 0.01 0.01 0.00 0.01 0.01 0.01 0.05 0.19 0.42 0.73 0.83 0.44 0.44 0.25 0.10 0.14 0.15 0.12 0.06 0.05 0.07
0.74 0.59 0.51 0.63 0.79 0.45 0.49 0.55 0.53 0.19 0.06 0.01 0.00 0.01 0.01 0.02 0.03 0.01 0.00 0.01 0.00 0.02 0.03 0.05 0.06 0.02 0.01 0.00 0.00 0.01 0.02 0.17 0.40 0.42 0.30 0.15 0.04 0.07 0.11 0.09 0.09 0.03 0.03 0.02
1.14 0.82 0.48 0.47 0.47 0.22 0.27 0.43 0.57 0.28 0.08 0.02 0.00 0.02 0.01 0.04 0.06 0.02 0.01 0.00 0.01 0.05 0.11 0.19 0.13 0.03 0.02 0.01 0.01 0.00 0.01 0.03 0.19 0.15 0.21 0.08 0.02 0.01 0.02 0.02 0.02 0.00 0.00 0.01
1.34 0.97 0.57 0.37 0.35 0.23 0.17 0.44 0.50 0.38 0.10 0.02 0.00 0.02 0.01 0.01 0.01 0.02 0.00 0.02 0.05 0.09 0.16 0.25 0.08 0.02 0.00 0.00 0.01 0.02 0.06 0.12 0.16 0.14 0.17 0.01 0.00 0.00 0.00 0.03 0.02 0.00 0.00 0.00
1.03 0.80 0.60 0.35 0.29 0.20 0.19 0.29 0.37 0.42 0.13 0.02 0.00 0.00 0.01 0.00 0.00 0.02 0.02 0.09 0.13 0.20 0.26 0.24 0.10 0.03 0.01 0.00 0.00 0.00 0.02 0.04 0.06 0.06 0.10 0.01 0.00 0.00 0.00 0.00 0.00 0.00 0.01 0.01
0.70 0.63 0.43 0.24 0.22 0.21 0.25 0.26 0.29 0.25 0.15 0.01 0.00 0.00 0.00 0.00 0.00 0.02 0.01 0.08 0.12 0.22 0.24 0.19 0.09 0.04 0.01 0.00 0.01 0.00 0.00 0.00 0.00 0.00 0.00 0.00 0.00 0.00 0.00 0.00 0.00 0.00 0.00 0.00
0.70 0.52 0.28 0.16 0.17 0.17 0.30 0.30 0.23 0.24 0.25 0.05 0.03 0.02 0.00 0.00 0.00 0.00 0.04 0.07 0.15 0.23 0.21 0.32 0.15 0.06 0.04 0.02 0.01 0.00 0.00 0.00 0.00 0.00 0.00 0.00 0.00 0.00 0.00 0.00 0.00 0.00 0.01 0.01
0.74 0.58 0.32 0.15 0.12 0.16 0.23 0.11 0.10 0.22 0.26 0.19 0.05 0.01 0.02 0.01 0.02 0.02 0.02 0.09 0.17 0.29 0.48 0.33 0.19 0.08 0.03 0.02 0.01 0.00 0.01 0.00 0.00 0.00 0.00 0.00 0.00 0.00 0.00 0.00 0.00 0.00 0.00 0.00
0.71 0.60 0.33 0.27 0.25 0.19 0.09 0.02 0.07 0.16 0.32 0.34 0.18 0.16 0.01 0.01 0.05 0.04 0.06 0.11 0.30 0.34 0.59 0.57 0.22 0.09 0.06 0.02 0.01 0.00 0.00 0.00 0.00 0.00 0.00 0.00 0.00 0.00 0.00 0.00 0.00 0.00 0.00 0.00
0.75 0.51 0.40 0.38 0.33 0.28 0.18 0.21 0.36 0.28 0.32 0.60 0.43 0.34 0.16 0.06 0.09 0.09 0.15 0.22 0.43 0.67 0.50 0.53 0.33 0.13 0.20 0.17 0.05 0.00 0.00 0.00 0.00 0.00 0.00 0.00 0.00 0.00 0.00 0.00 0.00 0.00 0.00 0.00
0.62 0.55 0.47 0.40 0.46 0.37 0.24 0.32 0.63 0.58 0.57 0.69 0.78 0.66 0.48 0.14 0.23 0.27 0.30 0.31 0.55 0.89 0.66 0.41 0.33 0.29 0.53 0.34 0.05 0.00 0.01 0.01 0.01 0.01 0.00 0.00 0.00 0.00 0.00 0.00 0.00 0.00 0.00 0.00
0.67 0.69 0.74 0.77 0.98 0.83 0.48 0.22 0.32 0.56 0.92 0.93 1.06 0.98 0.96 0.32 0.53 0.46 0.40 0.39 0.48 1.03 0.74 0.34 0.24 0.35 0.35 0.21 0.02 0.05 0.04 0.04 0.02 0.01 0.02 0.01 0.01 0.00 0.00 0.00 0.00 0.00 0.00 0.00
1.04 1.32 1.51 1.80 1.51 0.89 0.58 0.51 0.62 0.72 1.07 0.92 0.84 0.90 0.80 0.64 0.64 0.48 0.56 0.47 0.57 0.73 0.57 0.24 0.27 0.29 0.29 0.06 0.08 0.11 0.14 0.15 0.17 0.13 0.06 0.06 0.05 0.02 0.03 0.02 0.03 0.04 0.04 0.04
1.80 1.99 2.02 1.55 0.76 0.64 1.00 1.91 2.22 1.78 1.11 0.77 0.76 0.54 0.45 0.89 0.67 0.60 0.65 0.35 0.56 0.67 0.33 0.27 0.40 0.21 0.03 0.05 0.12 0.09 0.15 0.30 0.34 0.42 0.30 0.17 0.23 0.14 0.10 0.15 0.11 0.12 0.14 0.14
1.70 1.58 1.44 1.09 0.73 1.05 2.11 2.85 2.18 1.10 0.72 0.57 0.45 0.41 0.37 0.48 0.56 0.39 0.46 0.55 0.48 0.75 0.48 0.36 0.34 0.30 0.12 0.07 0.05 0.04 0.08 0.18 0.14 0.31 0.32 0.20 0.30 0.35 0.25 0.29 0.33 0.34 0.35 0.34
0.98 0.89 0.97 1.16 1.70 2.38 2.28 2.01 0.97 0.36 0.24 0.25 0.29 0.28 0.33 0.44 0.31 0.55 0.54 0.45 0.43 0.40 0.36 0.52 0.43 0.27 0.18 0.20 0.09 0.06 0.04 0.06 0.07 0.10 0.22 0.18 0.11 0.16 0.19 0.27 0.30 0.29 0.34 0.36
0.91 1.32 1.86 1.84 2.14 2.25 1.52 0.76 0.32 0.12 0.11 0.11 0.12 0.27 0.23 0.40 0.39 0.55 0.66 0.46 0.25 0.39 0.53 0.44 0.18 0.06 0.03 0.10 0.19 0.20 0.16 0.10 0.25 0.27 0.18 0.11 0.09 0.11 0.14 0.15 0.11 0.10 0.11 0.10
1.89 2.02 1.95 1.37 1.14 0.62 0.36 0.20 0.17 0.05 0.04 0.03 0.06 0.15 0.22 0.29 0.29 0.38 0.44 0.31 0.38 0.61 0.39 0.23 0.07 0.06 0.04 0.02 0.05 0.10 0.14 0.13 0.24 0.56 0.60 0.44 0.44 0.40 0.30 0.21 0.15 0.12 0.11 0.07
2.53 2.02 1.22 0.66 0.31 0.10 0.05 0.04 0.06 0.02 0.02 0.04 0.06 0.19 0.26 0.35 0.55 0.49 0.43 0.55 0.58 0.34 0.26 0.17 0.10 0.09 0.08 0.06 0.03 0.03 0.07 0.13 0.16 0.25 0.33 0.40 0.29 0.16 0.20 0.27 0.25 0.17 0.13 0.10
2.42 1.89 0.77 0.21 0.07 0.06 0.02 0.01 0.03 0.02 0.03 0.14 0.26 0.42 0.48 0.46 0.47 0.49 0.37 0.53 0.42 0.24 0.16 0.10 0.05 0.09 0.07 0.05 0.04 0.01 0.00 0.01 0.06 0.14 0.19 0.24 0.22 0.16 0.13 0.17 0.27 0.23 0.20 0.22
2.53 0.94 0.24 0.11 0.07 0.07 0.05 0.02 0.01 0.02 0.12 0.31 0.58 0.81 0.43 0.45 0.57 0.34 0.28 0.38 0.24 0.12 0.07 0.03 0.01 0.01 0.01 0.01 0.00 0.00 0.00 0.01 0.03 0.09 0.13 0.20 0.25 0.24 0.18 0.16 0.16 0.16 0.22 0.28

GFSNW_prec_precacc_171.txt.gz
Total_Precipitation_Accumulation
0.85 0.79 0.82 0.88 1.41 2.00 2.11 1.74 1.70 1.84 1.27 1.58 1.23 0.76 0.46 0.16 0.04 0.01 0.00 0.00 0.01 0.01 0.02 0.01 0.01 0.01 0.02 0.02 0.01 0.01 0.00 0.13 0.16 0.10 0.03 0.05 0.06 0.02 0.06 0.22 0.07 0.12 0.13 0.25
0.65 0.66 0.64 0.71 0.95 1.34 1.98 1.53 1.84 1.97 0.94 0.76 0.57 0.30 0.08 0.09 0.06 0.03 0.00 0.00 0.00 0.01 0.01 0.01 0.01 0.00 0.00 0.00 0.00 0.01 0.01 0.15 0.21 0.22 0.19 0.11 0.17 0.05 0.09 0.18 0.37 0.26 0.14 0.05
0.71 0.60 0.50 0.59 0.89 1.10 1.47 1.25 1.75 2.30 1.30 0.36 0.09 0.14 0.12 0.06 0.03 0.01 0.01 0.02 0.02 0.01 0.01 0.00 0.00 0.00 0.00 0.00 0.00 0.02 0.11 0.17 0.12 0.13 0.31 0.41 0.32 0.07 0.09 0.38 0.60 0.11 0.05 0.02
0.86 0.72 0.56 0.54 0.85 1.19 1.06 0.74 0.47 0.57 0.70 0.23 0.03 0.04 0.07 0.04 0.01 0.01 0.03 0.04 0.04 0.02 0.02 0.01 0.00 0.00 0.00 0.00 0.02 0.13 0.33 0.25 0.11 0.12 0.22 0.58 0.38 0.14 0.10 0.39 0.19 0.26 0.09 0.04
1.19 1.01 0.61 0.50 0.84 0.90 0.92 0.81 0.29 0.09 0.03 0.02 0.01 0.01 0.04 0.04 0.02 0.03 0.04 0.01 0.01 0.03 0.03 0.01 0.00 0.00 0.00 0.01 0.03 0.13 0.31 0.38 0.33 0.34 0.25 0.35 0.27 0.07 0.11 0.12 0.04 0.05 0.02 0.04
1.06 0.89 0.66 0.49 0.67 0.93 0.91 0.86 0.29 0.04 0.02 0.01 0.00 0.00 0.02 0.02 0.02 0.03 0.00 0.01 0.02 0.03 0.01 0.01 0.01 0.01 0.01 0.01 0.07 0.26 0.41 0.47 0.64 0.48 0.18 0.19 0.26 0.08 0.06 0.09 0.07 0.03 0.04 0.05
0.92 0.82 0.73 0.60 0.69 0.81 0.78 0.77 0.50 0.14 0.05 0.01 0.00 0.00 0.00 0.01 0.02 0.00 0.00 0.00 0.03 0.02 0.01 0.01 0.01 0.00 0.01 0.01 0.01 0.05 0.19 0.42 0.73 0.83 0.44 0.44 0.25 0.10 0.14 0.15 0.12 0.06 0.05 0.07
0.75 0.59 0.51 0.63 0.79 0.45 0.49 0.55 0.53 0.19 0.06 0.01 0.00 0.01 0.01 0.02 0.03 0.01 0.00 0.01 0.00 0.02 0.03 0.05 0.06 0.02 0.01 0.00 0.00 0.01 0.02 0.17 0.40 0.42 0.30 0.15 0.04 0.07 0.11 0.09 0.09 0.03 0.03 0.02
1.15 0.82 0.48 0.47 0.47 0.22 0.27 0.43 0.57 0.28 0.08 0.02 0.00 0.02 0.01 0.04 0.06 0.02 0.01 0.00 0.01 0.05 0.11 0.19 0.13 0.03 0.02 0.01 0.01 0.00 0.01 0.03 0.19 0.15 0.21 0.08 0.02 0.01 0.02 0.02 0.02 0.00 0.00 0.01
1.36 0.98 0.57 0.37 0.35 0.23 0.17 0.44 0.50 0.38 0.10 0.02 0.00 0.02 0.01 0.01 0.01 0.02 0.00 0.02 0.05 0.09 0.16 0.25 0.08 0.02 0.00 0.00 0.01 0.02 0.06 0.12 0.16 0.14 0.17 0.01 0.00 0.00 0.00 0.03 0.02 0.00 0.00 0.00
1.04 0.81 0.61 0.36 0.29 0.20 0.19 0.29 0.37 0.42 0.13 0.02 0.00 0.00 0.01 0.00 0.00 0.02 0.02 0.09 0.13 0.20 0.26 0.24 0.10 0.03 0.01 0.00 0.00 0.00 0.02 0.04 0.06 0.06 0.10 0.01 0.00 0.00 0.00 0.00 0.00 0.00 0.01 0.01
0.70 0.64 0.44 0.24 0.22 0.21 0.25 0.26 0.29 0.25 0.15 0.01 0.00 0.00 0.00 0.00 0.00 0.02 0.01 0.08 0.12 0.22 0.24 0.19 0.09 0.04 0.01 0.00 0.01 0.00 0.00 0.00 0.00 0.00 0.00 0.00 0.00 0.00 0.00 0.00 0.00 0.00 0.00 0.00
0.70 0.53 0.30 0.16 0.17 0.17 0.30 0.30 0.23 0.24 0.25 0.05 0.03 0.02 0.00 0.00 0.00 0.00 0.04 0.07 0.15 0.23 0.21 0.32 0.15 0.06 0.04 0.02 0.01 0.00 0.00 0.00 0.00 0.00 0.00 0.00 0.00 0.00 0.00 0.00 0.00 0.00 0.01 0.01
0.75 0.60 0.35 0.18 0.12 0.16 0.23 0.11 0.10 0.22 0.26 0.19 0.05 0.01 0.02 0.01 0.02 0.02 0.02 0.09 0.17 0.29 0.48 0.33 0.19 0.08 0.03 0.02 0.01 0.00 0.01 0.00 0.00 0.00 0.00 0.00 0.00 0.00 0.00 0.00 0.00 0.00 0.00 0.00
0.71 0.61 0.37 0.30 0.26 0.20 0.09 0.02 0.07 0.16 0.32 0.34 0.18 0.16 0.01 0.01 0.05 0.04 0.06 0.11 0.30 0.34 0.59 0.57 0.22 0.09 0.06 0.02 0.01 0.00 0.00 0.00 0.00 0.00 0.00 0.00 0.00 0.00 0.00 0.00 0.00 0.00 0.00 0.00
0.75 0.51 0.41 0.41 0.37 0.32 0.18 0.21 0.36 0.28 0.32 0.60 0.43 0.34 0.16 0.06 0.09 0.09 0.15 0.22 0.43 0.67 0.50 0.53 0.33 0.13 0.20 0.17 0.05 0.00 0.00 0.00 0.00 0.00 0.00 0.00 0.00 0.00 0.00 0.00 0.00 0.00 0.00 0.00
0.62 0.55 0.47 0.41 0.50 0.43 0.26 0.35 0.64 0.58 0.57 0.69 0.79 0.66 0.48 0.14 0.23 0.27 0.30 0.31 0.55 0.89 0.66 0.41 0.33 0.29 0.53 0.34 0.05 0.00 0.01 0.01 0.01 0.01 0.00 0.00 0.00 0.00 0.00 0.00 0.00 0.00 0.00 0.00
0.67 0.69 0.74 0.77 1.05 0.95 0.54 0.26 0.40 0.60 0.95 0.98 1.10 0.99 0.96 0.32 0.53 0.46 0.40 0.39 0.48 1.03 0.74 0.34 0.24 0.35 0.35 0.21 0.02 0.05 0.04 0.04 0.02 0.01 0.02 0.01 0.01 0.00 0.00 0.00 0.00 0.00 0.00 0.00
1.04 1.32 1.51 1.80 1.53 1.03 0.79 0.65 0.80 0.92 1.23 1.05 0.92 0.91 0.80 0.64 0.64 0.48 0.56 0.47 0.57 0.73 0.57 0.24 0.27 0.29 0.29 0.06 0.08 0.11 0.14 0.15 0.17 0.13 0.06 0.06 0.05 0.02 0.03 0.02 0.03 0.04 0.04 0.04
1.80 1.99 2.03 1.56 0.77 0.66 1.10 2.12 2.41 2.06 1.33 0.92 0.81 0.54 0.45 0.89 0.67 0.60 0.65 0.36 0.56 0.67 0.33 0.27 0.40 0.21 0.03 0.05 0.12 0.09 0.15 0.30 0.34 0.42 0.30 0.17 0.23 0.14 0.10 0.15 0.11 0.12 0.14 0.14
1.70 1.58 1.45 1.11 0.81 1.12 2.22 3.01 2.32 1.24 0.82 0.62 0.48 0.41 0.37 0.48 0.56 0.39 0.50 0.62 0.51 0.75 0.48 0.36 0.34 0.30 0.12 0.07 0.05 0.04 0.08 0.18 0.14 0.31 0.32 0.20 0.30 0.35 0.25 0.29 0.33 0.34 0.35 0.34
0.98 0.89 0.98 1.18 1.82 2.44 2.38 2.11 1.06 0.41 0.28 0.27 0.30 0.28 0.33 0.44 0.31 0.60 0.69 0.59 0.52 0.43 0.36 0.53 0.43 0.27 0.18 0.20 0.09 0.06 0.04 0.06 0.07 0.10 0.22 0.18 0.11 0.16 0.19 0.27 0.30 0.29 0.34 0.36
0.91 1.32 1.86 1.85 2.18 2.33 1.58 0.82 0.37 0.20 0.15 0.16 0.14 0.29 0.27 0.48 0.54 0.80 0.86 0.59 0.35 0.41 0.54 0.44 0.18 0.06 0.03 0.10 0.19 0.20 0.16 0.10 0.25 0.27 0.18 0.11 0.09 0.11 0.14 0.15 0.11 0.10 0.11 0.10
1.89 2.02 1.95 1.37 1.15 0.65 0.44 0.26 0.19 0.09 0.12 0.14 0.19 0.27 0.31 0.37 0.41 0.54 0.55 0.41 0.43 0.64 0.41 0.23 0.07 0.06 0.04 0.02 0.05 0.10 0.14 0.13 0.24 0.56 0.60 0.44 0.44 0.40 0.30 0.21 0.15 0.12 0.11 0.07
2.53 2.02 1.22 0.66 0.31 0.12 0.12 0.09 0.11 0.07 0.06 0.07 0.11 0.27 0.32 0.38 0.59 0.53 0.45 0.57 0.58 0.34 0.27 0.17 0.10 0.09 0.08 0.06 0.03 0.03 0.07 0.13 0.16 0.25 0.33 0.40 0.29 0.16 0.20 0.27 0.25 0.17 0.13 0.10
2.42 1.90 0.78 0.23 0.08 0.07 0.04 0.02 0.03 0.02 0.03 0.18 0.37 0.52 0.55 0.53 0.54 0.54 0.37 0.53 0.42 0.26 0.17 0.10 0.05 0.09 0.07 0.05 0.04 0.01 0.00 0.01 0.06 0.14 0.19 0.24 0.22 0.16 0.13 0.17 0.27 0.23 0.20 0.22
2.53 0.94 0.24 0.12 0.11 0.08 0.05 0.02 0.01 0.02 0.12 0.31 0.60 0.89 0.54 0.54 0.68 0.42 0.33 0.41 0.27 0.14 0.07 0.03 0.01 0.01 0.01 0.01 0.00 0.00 0.00 0.01 0.03 0.09 0.13 0.20 0.25 0.24 0.18 0.16 0.16 0.16 0.22 0.28

GFSNW_prec_precacc_174.txt.gz
Total_Precipitation_Accumulation
0.85 0.79 0.82 0.88 1.41 2.00 2.11 1.74 1.70 1.84 1.27 1.58 1.23 0.76 0.46 0.16 0.04 0.01 0.00 0.00 0.01 0.01 0.02 0.01 0.01 0.01 0.02 0.02 0.01 0.01 0.00 0.13 0.17 0.10 0.06 0.06 0.06 0.02 0.07 0.24 0.08 0.12 0.13 0.25
0.65 0.66 0.64 0.71 0.95 1.34 1.98 1.53 1.84 1.97 0.94 0.76 0.57 0.30 0.08 0.09 0.06 0.03 0.00 0.00 0.00 0.01 0.01 0.01 0.01 0.00 0.00 0.00 0.00 0.01 0.01 0.15 0.21 0.23 0.20 0.12 0.17 0.05 0.09 0.18 0.37 0.26 0.14 0.05
0.71 0.60 0.50 0.59 0.89 1.10 1.47 1.25 1.75 2.30 1.30 0.36 0.09 0.14 0.12 0.06 0.03 0.01 0.01 0.02 0.02 0.01 0.01 0.00 0.00 0.00 0.00 0.00 0.00 0.02 0.11 0.17 0.12 0.14 0.31 0.41 0.32 0.07 0.09 0.38 0.60 0.11 0.05 0.02
0.86 0.72 0.56 0.54 0.85 1.19 1.06 0.74 0.47 0.57 0.70 0.23 0.03 0.04 0.07 0.04 0.01 0.01 0.03 0.04 0.04 0.02 0.02 0.01 0.00 0.00 0.00 0.00 0.02 0.13 0.33 0.25 0.11 0.12 0.22 0.58 0.38 0.14 0.10 0.39 0.19 0.26 0.09 0.04
1.19 1.01 0.61 0.50 0.84 0.90 0.92 0.81 0.29 0.09 0.03 0.02 0.01 0.01 0.04 0.04 0.02 0.03 0.04 0.01 0.01 0.03 0.03 0.01 0.00 0.00 0.00 0.01 0.03 0.13 0.31 0.38 0.33 0.34 0.25 0.35 0.27 0.07 0.11 0.12 0.04 0.05 0.02 0.04
1.06 0.89 0.66 0.49 0.67 0.93 0.91 0.86 0.29 0.04 0.02 0.01 0.00 0.00 0.02 0.02 0.02 0.03 0.00 0.01 0.02 0.03 0.01 0.01 0.01 0.01 0.01 0.01 0.07 0.26 0.41 0.47 0.64 0.48 0.18 0.19 0.26 0.08 0.06 0.09 0.07 0.03 0.04 0.05
0.92 0.83 0.74 0.60 0.69 0.81 0.78 0.77 0.50 0.14 0.05 0.01 0.00 0.00 0.00 0.01 0.02 0.00 0.00 0.00 0.03 0.02 0.01 0.01 0.01 0.00 0.01 0.01 0.01 0.05 0.19 0.42 0.73 0.83 0.44 0.44 0.25 0.10 0.14 0.15 0.12 0.06 0.05 0.07
0.75 0.59 0.51 0.63 0.79 0.45 0.49 0.55 0.53 0.19 0.06 0.01 0.00 0.01 0.01 0.02 0.03 0.01 0.00 0.01 0.00 0.02 0.03 0.05 0.06 0.02 0.01 0.00 0.00 0.01 0.02 0.17 0.40 0.42 0.30 0.15 0.04 0.07 0.11 0.09 0.09 0.03 0.03 0.02
1.15 0.83 0.48 0.47 0.47 0.22 0.27 0.43 0.57 0.28 0.08 0.02 0.00 0.02 0.01 0.04 0.06 0.02 0.01 0.00 0.01 0.05 0.11 0.19 0.13 0.03 0.02 0.01 0.01 0.00 0.01 0.03 0.19 0.15 0.21 0.08 0.02 0.01 0.02 0.02 0.02 0.00 0.00 0.01
1.37 1.00 0.58 0.37 0.35 0.23 0.17 0.44 0.50 0.38 0.10 0.02 0.00 0.02 0.01 0.01 0.01 0.02 0.00 0.02 0.05 0.09 0.16 0.25 0.08 0.02 0.00 0.00 0.01 0.02 0.06 0.12 0.16 0.14 0.17 0.01 0.00 0.00 0.00 0.03 0.02 0.00 0.00 0.00
1.07 0.84 0.63 0.36 0.29 0.20 0.19 0.29 0.37 0.42 0.13 0.02 0.00 0.00 0.01 0.00 0.00 0.02 0.02 0.09 0.13 0.20 0.26 0.24 0.10 0.03 0.01 0.00 0.00 0.00 0.02 0.04 0.06 0.06 0.10 0.01 0.00 0.00 0.00 0.00 0.00 0.00 0.01 0.01
0.75 0.67 0.47 0.26 0.22 0.21 0.25 0.26 0.29 0.25 0.15 0.01 0.00 0.00 0.00 0.00 0.00 0.02 0.01 0.08 0.12 0.22 0.24 0.19 0.09 0.04 0.01 0.00 0.01 0.00 0.00 0.00 0.00 0.00 0.00 0.00 0.00 0.00 0.00 0.00 0.00 0.00 0.00 0.00
0.77 0.56 0.31 0.19 0.18 0.17 0.30 0.30 0.23 0.24 0.25 0.05 0.03 0.02 0.00 0.00 0.00 0.00 0.04 0.07 0.15 0.23 0.21 0.32 0.15 0.06 0.04 0.02 0.01 0.00 0.00 0.00 0.00 0.00 0.00 0.00 0.00 0.00 0.00 0.00 0.00 0.00 0.01 0.01
0.79 0.62 0.37 0.20 0.14 0.16 0.23 0.11 0.10 0.22 0.26 0.19 0.05 0.01 0.02 0.01 0.02 0.02 0.02 0.09 0.17 0.29 0.48 0.33 0.19 0.08 0.03 0.02 0.01 0.00 0.01 0.00 0.00 0.00 0.00 0.00 0.00 0.00 0.00 0.00 0.00 0.00 0.00 0.00
0.72 0.62 0.37 0.31 0.29 0.20 0.09 0.02 0.07 0.16 0.32 0.34 0.18 0.16 0.01 0.01 0.05 0.04 0.06 0.11 0.30 0.34 0.59 0.57 0.22 0.09 0.06 0.02 0.01 0.00 0.00 0.00 0.00 0.00 0.00 0.00 0.00 0.00 0.00 0.00 0.00 0.00 0.00 0.00
0.76 0.52 0.43 0.42 0.38 0.33 0.19 0.21 0.36 0.28 0.32 0.60 0.43 0.34 0.16 0.06 0.09 0.09 0.15 0.22 0.43 0.67 0.50 0.53 0.33 0.13 0.20 0.17 0.05 0.00 0.00 0.00 0.00 0.00 0.00 0.00 0.00 0.00 0.00 0.00 0.00 0.00 0.00 0.00
0.64 0.58 0.49 0.43 0.52 0.45 0.27 0.35 0.64 0.58 0.57 0.69 0.79 0.66 0.48 0.14 0.23 0.27 0.30 0.31 0.55 0.89 0.66 0.41 0.33 0.29 0.53 0.34 0.05 0.00 0.01 0.01 0.01 0.01 0.00 0.00 0.00 0.00 0.00 0.00 0.00 0.00 0.00 0.00
0.69 0.72 0.78 0.83 1.12 0.99 0.55 0.27 0.40 0.60 0.95 0.98 1.10 0.99 0.96 0.32 0.53 0.46 0.40 0.39 0.48 1.03 0.74 0.34 0.24 0.35 0.35 0.21 0.02 0.05 0.04 0.04 0.02 0.01 0.02 0.01 0.01 0.00 0.00 0.00 0.00 0.00 0.00 0.00
1.05 1.33 1.58 1.89 1.60 1.11 0.84 0.71 0.81 0.92 1.24 1.07 0.95 0.91 0.80 0.64 0.64 0.48 0.56 0.47 0.57 0.73 0.57 0.24 0.27 0.29 0.29 0.06 0.08 0.11 0.14 0.15 0.17 0.13 0.06 0.06 0.05 0.02 0.03 0.02 0.03 0.04 0.04 0.04
1.81 1.99 2.03 1.57 0.81 0.72 1.13 2.15 2.43 2.13 1.41 0.97 0.84 0.55 0.45 0.89 0.67 0.60 0.65 0.36 0.56 0.67 0.33 0.27 0.40 0.21 0.03 0.05 0.12 0.09 0.15 0.30 0.34 0.42 0.30 0.17 0.23 0.14 0.10 0.15 0.11 0.12 0.14 0.14
1.72 1.61 1.48 1.15 0.95 1.20 2.29 3.13 2.41 1.34 0.89 0.66 0.49 0.41 0.37 0.48 0.56 0.39 0.51 0.65 0.53 0.76 0.48 0.36 0.34 0.30 0.12 0.07 0.05 0.04 0.08 0.18 0.14 0.31 0.32 0.20 0.30 0.35 0.25 0.29 0.33 0.34 0.35 0.34
0.99 0.92 1.02 1.27 2.05 2.55 2.52 2.26 1.15 0.45 0.29 0.27 0.31 0.29 0.33 0.44 0.31 0.61 0.72 0.62 0.56 0.44 0.36 0.53 0.43 0.27 0.18 0.20 0.09 0.06 0.04 0.06 0.07 0.10 0.22 0.18 0.11 0.16 0.19 0.27 0.30 0.29 0.34 0.36
0.91 1.33 1.89 1.93 2.29 2.40 1.64 0.89 0.42 0.24 0.16 0.17 0.14 0.30 0.29 0.52 0.59 0.89 0.94 0.63 0.38 0.42 0.55 0.45 0.18 0.06 0.03 0.10 0.19 0.20 0.16 0.10 0.25 0.27 0.18 0.11 0.09 0.11 0.14 0.15 0.11 0.10 0.11 0.10
1.89 2.02 1.99 1.41 1.20 0.72 0.49 0.29 0.23 0.16 0.18 0.19 0.23 0.32 0.35 0.43 0.47 0.66 0.62 0.46 0.45 0.66 0.42 0.23 0.08 0.06 0.04 0.02 0.05 0.10 0.14 0.13 0.24 0.56 0.60 0.44 0.44 0.40 0.30 0.21 0.15 0.12 0.11 0.07
2.53 2.02 1.22 0.67 0.32 0.15 0.15 0.10 0.13 0.11 0.12 0.17 0.21 0.36 0.41 0.47 0.67 0.61 0.49 0.59 0.59 0.35 0.27 0.18 0.10 0.09 0.08 0.06 0.03 0.03 0.07 0.13 0.16 0.25 0.33 0.40 0.29 0.16 0.20 0.27 0.25 0.17 0.13 0.10
2.42 1.90 0.78 0.23 0.10 0.11 0.05 0.02 0.03 0.02 0.04 0.21 0.43 0.59 0.62 0.60 0.57 0.56 0.38 0.54 0.43 0.26 0.17 0.10 0.05 0.09 0.07 0.05 0.04 0.01 0.00 0.01 0.06 0.14 0.19 0.24 0.22 0.16 0.13 0.17 0.27 0.23 0.20 0.22
2.53 0.94 0.24 0.12 0.12 0.08 0.05 0.02 0.01 0.02 0.12 0.31 0.60 0.90 0.55 0.55 0.70 0.44 0.34 0.42 0.27 0.14 0.07 0.03 0.01 0.01 0.01 0.01 0.00 0.00 0.00 0.01 0.03 0.09 0.13 0.20 0.25 0.24 0.18 0.16 0.16 0.16 0.22 0.28